Weather History for EGWU - March, 2013

Change the Weather History Date:

Tuesday, March 12, 2013

  Actual Average Record
Temperature  
Mean Temperature 34 °F -  
Max Temperature 40 °F 52 °F 60 °F (2007)
Min Temperature 28 °F 39 °F 28 °F (2013)
Degree Days  
Heating Degree Days 31    
Moisture  
Dew Point 22 °F    
Average Humidity 60    
Maximum Humidity 81    
Minimum Humidity 31    
Precipitation  
Precipitation 0.00 in - - ()
Sea Level Pressure  
Sea Level Pressure 29.80 in    
Wind  
Wind Speed 16 mph ()    
Max Wind Speed 24 mph    
Max Gust Speed 36 mph    
Visibility 6.8 miles    
Events Snow    
Averages and records for this station are not official NWS values.
T = Trace of Precipitation, MM = Missing Value Source: Averaged Metar Reports

Daily Weather History Graph

Daily Weather History Graph

Search for Another Location

Airport or City:

Trip Planner

Search our weather history database for the weather conditions in past years. The results will help you decide how hot, cold, wet, or windy it might be!

Date:

Astronomy

Mar. 12, 2013 Rise Set
Actual Time 6:22 AM GMT 6:01 PM GMT
Civil Twilight 5:49 AM GMT 6:34 PM GMT
Nautical Twilight 5:10 AM GMT 7:13 PM GMT
Astronomical Twilight 4:30 AM GMT 7:53 PM GMT
Moon 6:12 AM GMT (3/12) 7:13 PM GMT (3/12)
Length of Visible Light 12h 45m
Length of Day
11h 38m
New Moon, 1% of the Moon is Illuminated
Mar 12
New Moon
Mar 19
First Quarter
Mar 27
Full
Apr 3
Last Quarter
Apr 10
New

Hourly Weather History & Observations

Time (GMT) Temp. Windchill Dew Point Humidity Pressure Visibility Wind Dir Wind Speed Gust Speed Precip Events Conditions
12:50 AM 28.4 °F 15.4 °F 19.4 °F 69% 29.77 in 6.2 mi NE 19.6 mph - N/A   Mostly Cloudy
1:50 AM 28.4 °F 15.8 °F 19.4 °F 69% 29.74 in 6.2 mi NE 18.4 mph - N/A   Mostly Cloudy
2:50 AM 28 °F - 19 °F 59% 29.77 in 22 mi NE 18.4 mph - -   Scattered Clouds
2:50 AM 28.4 °F 15.8 °F 19.4 °F 69% 29.74 in 6.2 mi NE 18.4 mph 31.1 mph N/A   Mostly Cloudy
3:50 AM 28.4 °F 15.1 °F 19.4 °F 69% 29.74 in 6.2 mi NE 20.7 mph - N/A   Mostly Cloudy
4:50 AM 28.4 °F 15.4 °F 19.4 °F 69% 29.74 in 6.2 mi NE 19.6 mph 35.7 mph N/A   Mostly Cloudy
5:50 AM 29 °F - 18 °F 51% 29.78 in 28 mi NE 17.3 mph - -   Mostly Cloudy
5:50 AM 28.4 °F 16.2 °F 17.6 °F 64% 29.77 in 6.2 mi NE 17.3 mph 28.8 mph N/A   Mostly Cloudy
6:50 AM 28.4 °F 15.8 °F 17.6 °F 64% 29.77 in 6.2 mi NE 18.4 mph 31.1 mph N/A   Mostly Cloudy
7:50 AM 30.2 °F 18.5 °F 19.4 °F 64% 29.80 in 6.2 mi NE 17.3 mph - N/A   Mostly Cloudy
8:50 AM 31 °F - 16 °F 41% 29.83 in 25 mi NE 19.6 mph - -   Scattered Clouds
8:50 AM 32.0 °F 20.1 °F 15.8 °F 51% 29.80 in 6.2 mi NE 19.6 mph 33.4 mph N/A   Mostly Cloudy
9:50 AM 32.0 °F 18.9 °F 15.8 °F 51% 29.83 in 6.2 mi NE 24.2 mph - N/A   Scattered Clouds
10:50 AM 33.8 °F 21.9 °F 15.8 °F 48% 29.83 in 6.2 mi NE 21.9 mph - N/A   Scattered Clouds
11:50 AM 36 °F - 16 °F 31% 29.83 in 31 mi ENE 24.2 mph - -   Scattered Clouds
11:50 AM 37.4 °F 26.1 °F 15.8 °F 41% 29.80 in 6.2 mi ENE 24.2 mph 35.7 mph N/A   Partly Cloudy
12:50 PM 39.2 °F 29.3 °F 17.6 °F 42% 29.80 in 6.2 mi ENE 20.7 mph 33.4 mph N/A   Partly Cloudy
1:50 PM 39.2 °F 29.0 °F 19.4 °F 45% 29.80 in 6.2 mi NE 21.9 mph - N/A   Partly Cloudy
2:50 PM 40 °F - 21 °F 33% 29.81 in 25 mi NE 20.7 mph - -   Partly Cloudy
2:50 PM 41.0 °F 31.6 °F 21.2 °F 45% 29.80 in 6.2 mi NE 20.7 mph - N/A   Scattered Clouds
3:50 PM 39.2 °F 29.8 °F 21.2 °F 49% 29.80 in 6.2 mi NE 18.4 mph - N/A   Mostly Cloudy
4:50 PM 37.4 °F 28.2 °F 26.6 °F 65% 29.80 in 6.2 mi NNE 16.1 mph - N/A Snow Light Snow Showers
5:50 PM 36 °F - 28 °F 63% 29.83 in 25 mi NNE 11.5 mph - - Snow Light Snow Showers
5:50 PM 35.6 °F 27.5 °F 28.4 °F 75% 29.80 in 6.2 mi NNE 11.5 mph - N/A   Mostly Cloudy
6:50 PM 35.6 °F 29.2 °F 26.6 °F 70% 29.80 in 6.2 mi NNE 8.1 mph - N/A   Mostly Cloudy
7:50 PM 35.6 °F 30.7 °F 26.6 °F 70% 29.80 in 6.2 mi North 5.8 mph - N/A   Mostly Cloudy
8:50 PM 36 °F - 28 °F 64% 29.84 in 17 mi North 8.1 mph - -   Mostly Cloudy
8:50 PM 35.6 °F 29.2 °F 28.4 °F 75% 29.83 in 6.2 mi North 8.1 mph - N/A   Mostly Cloudy
9:50 PM 35.6 °F 29.2 °F 30.2 °F 81% 29.83 in 6.2 mi North 8.1 mph - N/A   Mostly Cloudy
10:50 PM 35.6 °F 31.7 °F 30.2 °F 81% 29.80 in 6.2 mi NNW 4.6 mph - N/A   Mostly Cloudy
11:50 PM 35 °F - 30 °F 77% 29.82 in 12 mi NNW 5.8 mph - -   Overcast
11:50 PM 35.6 °F 30.7 °F 30.2 °F 81% 29.80 in 6.2 mi NNW 5.8 mph - N/A   Overcast